Weather History for Estherville, IA

Change the Weather History Date:

Monday, November 1, 2010

  Actual Average Record
Temperature  
Mean Temperature 40 °F 41 °F  
Max Temperature 53 °F 51 °F 77 °F (1968)
Min Temperature 26 °F 30 °F 13 °F (1993)
Degree Days  
Heating Degree Days 25 24  
Month to date heating degree days 25 24  
Since 1 July heating degree days 587 773  
Cooling Degree Days 0 0  
Month to date cooling degree days 0 0  
Year to date cooling degree days 721 593  
Moisture  
Dew Point 27 °F    
Average Humidity 67    
Maximum Humidity 92    
Minimum Humidity 41    
Precipitation  
Precipitation 0.00 in 0.06 in 0.52 in (2004)
Month to date precipitation 0.00 0.06  
Year to date precipitation 32.81  
Sea Level Pressure  
Sea Level Pressure 30.40 in    
Wind  
Wind Speed 6 mph (SSE)    
Max Wind Speed 16 mph    
Max Gust Speed 20 mph    
Visibility 10 miles    
Events      
T = Trace of Precipitation, MM = Missing Value Source: NWS Daily Summary

Daily Weather History Graph

Daily Weather History Graph

Search for Another Location

Airport:

Trip Planner

Search our weather history database for the weather conditions in past years. The results will help you decide how hot, cold, wet, or windy it might be!

Date:

Astronomy

Nov. 01, 2010 Rise Set
Actual Time 7:54 AM CDT 6:10 PM CDT
Civil Twilight 7:24 AM CDT 6:39 PM CDT
Nautical Twilight 6:50 AM CDT 7:13 PM CDT
Astronomical Twilight 6:17 AM CDT 7:46 PM CDT
Moon 2:22 AM CDT (11/1) 3:26 PM CDT (11/1)
Length of Visible Light 11h 15m
Length of Day
10h 15m
Waning Crescent, 26% of the Moon is Illuminated
Nov 1
Waning Crescent
Nov 5
New
Nov 13
First Quarter
Nov 21
Full
Nov 28
Last Quarter

Hourly Weather History & Observations

Time (CDT) Temp. Windchill Dew Point Humidity Pressure Visibility Wind Dir Wind Speed Gust Speed Precip Events Conditions
12:52 AM 30.9 °F - 26.1 °F 82% 30.33 in 10.0 mi Calm Calm - N/A   Clear
1:52 AM 30.9 °F 27.5 °F 26.1 °F 82% 30.34 in 10.0 mi South 3.5 mph - N/A   Clear
2:52 AM 27.0 °F 23.0 °F 24.1 °F 89% 30.34 in 10.0 mi SE 3.5 mph - N/A   Clear
3:52 AM 30.0 °F 25.2 °F 25.0 °F 82% 30.34 in 10.0 mi South 4.6 mph - N/A   Clear
4:52 AM 28.9 °F 25.2 °F 24.1 °F 82% 30.34 in 10.0 mi South 3.5 mph - N/A   Clear
5:52 AM 28.0 °F 24.2 °F 24.1 °F 85% 30.37 in 10.0 mi SSW 3.5 mph - N/A   Clear
6:52 AM 26.1 °F 19.4 °F 23.0 °F 88% 30.38 in 10.0 mi SSE 5.8 mph - N/A   Partly Cloudy
7:52 AM 28.0 °F - 23.0 °F 81% 30.39 in 10.0 mi Calm Calm - N/A   Scattered Clouds
8:52 AM 30.9 °F 27.5 °F 27.0 °F 85% 30.41 in 10.0 mi SSE 3.5 mph - N/A   Overcast
9:52 AM 39.0 °F 33.4 °F 30.0 °F 70% 30.42 in 10.0 mi SSE 8.1 mph - N/A   Clear
10:52 AM 44.1 °F 37.4 °F 30.0 °F 58% 30.42 in 10.0 mi South 13.8 mph - N/A   Clear
11:52 AM 46.0 °F 40.6 °F 30.0 °F 54% 30.42 in 10.0 mi SSE 11.5 mph - N/A   Clear
12:52 PM 48.9 °F - 28.9 °F 46% 30.42 in 10.0 mi South 11.5 mph - N/A   Clear
1:52 PM 50.0 °F - 28.9 °F 44% 30.40 in 10.0 mi South 11.5 mph - N/A   Clear
2:52 PM 52.0 °F - 28.9 °F 41% 30.40 in 10.0 mi South 6.9 mph - N/A   Clear
3:52 PM 52.0 °F - 28.9 °F 41% 30.40 in 10.0 mi ESE 5.8 mph - N/A   Clear
4:52 PM 50.0 °F - 28.0 °F 43% 30.40 in 10.0 mi ESE 5.8 mph - N/A   Clear
5:52 PM 46.9 °F - 30.9 °F 54% 30.40 in 10.0 mi ENE 4.6 mph - N/A   Clear
6:52 PM 41.0 °F 35.8 °F 30.0 °F 65% 30.43 in 10.0 mi East 8.1 mph - N/A   Clear
7:52 PM 39.0 °F 33.4 °F 28.0 °F 65% 30.43 in 10.0 mi ESE 8.1 mph - N/A   Clear
8:52 PM 37.0 °F 30.4 °F 28.9 °F 73% 30.43 in 10.0 mi ESE 9.2 mph - N/A   Clear
9:52 PM 36.0 °F 31.1 °F 28.0 °F 73% 30.43 in 10.0 mi SSE 5.8 mph - N/A   Clear
10:52 PM 36.0 °F 30.3 °F 27.0 °F 70% 30.44 in 10.0 mi SE 6.9 mph - N/A   Clear
11:52 PM 35.1 °F - 27.0 °F 72% 30.43 in 10.0 mi Calm Calm - N/A   Clear